[[{"header":{"parameterUnit":"m.s-1","parameterCategory":1,"la1":30.2991,"la2":30.254,"lo1":-89.0895,"lo2":-89.0444,"dy":0.0017,"dx":0.0017,"nx":28,"ny":28,"refTime":"2025-04-14T21:00:00:Z","depth":0,"parameterNumber":2,"parameterNumberName":"U-component_of_WINDS"},"data":[0,0,0,0,0,0,0,0,0,0,0,0,0,0,0,0,0,0,0,0,0,0,0,0,0,0,0,0,0,0,0,0,0,0,0,0,0,0,0,0,0,0,0,0,0,0,0,0,0,0,0,0,0,0,0,0,0,0,0.2897,0.2897,0,0.2953,0.2953,0.2954,0.2995,0.2996,0.2996,0.2996,0.3053,0.3054,0.3055,0,0,0,0,0,0,0,0,0,0,0,0,0,0.2827,0.2828,0.2897,0.2897,0.2898,0.2952,0.2953,0.2954,0.2995,0.2996,0.2996,0.2997,0.3052,0.3054,0.3055,0,0,0,0,0,0,0,0,0,0,0,0,0,0.2867,0.2828,0.2897,0.2925,0.2928,0.2952,0.2953,0.2954,0.2995,0.2996,0.2996,0.2997,0.3052,0.3054,0.3055,0.3055,0,0,0.3061,0.3061,0,0,0,0,0,0,0,0,0.2865,0.287,0.292,0.2923,0.2927,0.2968,0.2949,0.2988,0.2995,0.297,0.2996,0.2997,0.3024,0.3028,0.3037,0.3058,0.306,0.3061,0.3062,0.3063,0.3063,0,0,0,0,0,0,0,0.2862,0.2868,0.2919,0.2921,0.2925,0.2936,0.2942,0.2957,0.2993,0.2972,0.2975,0.2981,0.3026,0.3035,0.3039,0.3061,0.3061,0.3062,0.3063,0.3064,0.3087,0.3086,0,0,0,0,0,0,0.2855,0.2865,0.2917,0.292,0.2897,0.2936,0.2944,0.2954,0.2993,0.2999,0.2981,0.2983,0.3032,0.3037,0.3041,0.3045,0.3063,0.3064,0.3065,0.3087,0.3086,0.3086,0,0,0,0,0,0,0.2853,0.2859,0.2915,0.2894,0.2902,0.2937,0.2948,0.2955,0.2964,0.3,0.3006,0.2984,0.3033,0.3039,0.3052,0.3047,0.3065,0.3067,0.3087,0.3087,0.3086,0.305,0,0,0,0,0,0,0.2851,0.2858,0.2858,0.2893,0.2903,0.2924,0.2948,0.2955,0.2967,0.2971,0.3004,0.301,0.3034,0.3049,0.3054,0.305,0.3068,0.3088,0.3087,0.3086,0.3052,0.3049,0.3046,0,0,0,0,0,0.2848,0.2845,0.2858,0.2864,0.2903,0.2924,0.2929,0.2956,0.2967,0.2967,0.299,0.3009,0.3047,0.305,0.3055,0.3052,0.3088,0.3087,0.3086,0.3054,0.3049,0.3046,0,0,0,0,0,0,0.2807,0.285,0.2865,0.2872,0.2894,0.2931,0.2932,0.295,0.2969,0.2971,0.3004,0.3012,0.3022,0.3038,0.3041,0.3055,0.307,0.307,0.3044,0.304,0.3036,0.3032,0.3069,0,0,0,0,0,0.2799,0.2812,0.2849,0.2853,0.2863,0.2895,0.2905,0.2925,0.2948,0.2958,0.2982,0.3004,0.3021,0.3031,0.3049,0.3055,0.3064,0.3056,0.3053,0.305,0.3049,0.3056,0.3053,0.3083,0.3083,0.3083,0,0,0.2782,0.2807,0.2813,0.2845,0.2864,0.2877,0.2903,0.2915,0.2926,0.2959,0.2974,0.2992,0.302,0.303,0.3036,0.3044,0.3043,0.3049,0.3046,0.3047,0.3054,0.3052,0.3049,0.3082,0.3082,0.3082,0,0,0.2758,0.2778,0.2784,0.2804,0.2833,0.2855,0.2856,0.2891,0.2904,0.292,0.2946,0.2959,0.2987,0.3006,0.302,0.3006,0.3025,0.3011,0.2993,0.2999,0.2997,0.2995,0.2991,0.2989,0.3011,0.301,0.301,0,0.2733,0.2754,0.2785,0.2797,0.281,0.2843,0.285,0.2867,0.29,0.2909,0.2918,0.2956,0.2977,0.2993,0.299,0.2999,0.3003,0.3007,0.2995,0.2993,0.2992,0.2989,0.2987,0.3009,0.3009,0.3009,0.3009,0,0.2723,0.2738,0.2739,0.2771,0.2785,0.2794,0.2827,0.2838,0.2857,0.2878,0.2894,0.292,0.2945,0.295,0.2968,0.2969,0.2974,0.2989,0.3004,0.2987,0.2984,0.2983,0.3006,0.3007,0.3007,0.3008,0,0,0.2673,0.2724,0.2724,0.274,0.2775,0.2787,0.2799,0.2823,0.2832,0.2855,0.2866,0.2891,0.2905,0.292,0.2941,0.2947,0.2936,0.2961,0.2962,0.2956,0.294,0.2929,0.2927,0.2949,0.2949,0.2949,0.2938,0,0.2655,0.2677,0.2706,0.2718,0.2733,0.2765,0.2776,0.2799,0.282,0.2836,0.286,0.2877,0.2894,0.2904,0.2911,0.2935,0.2933,0.2937,0.296,0.296,0.2952,0.2925,0.2913,0.2901,0.2937,0.2937,0.2937,0,0.2636,0.2658,0.2672,0.2709,0.2716,0.2724,0.275,0.2765,0.2793,0.2808,0.2827,0.285,0.2865,0.288,0.2901,0.2903,0.2915,0.2929,0.2929,0.2932,0.2947,0.2928,0.2898,0.2897,0.2936,0.2936,0.2936,0,0.2598,0.2631,0.2645,0.2657,0.27,0.2706,0.2724,0.2753,0.2766,0.279,0.2799,0.2823,0.2836,0.2855,0.2885,0.2893,0.2904,0.2921,0.2917,0.2917,0.2917,0.2917,0.289,0.2925,0.2925,0.2925,0.2925,0,0.2574,0.2582,0.2628,0.2636,0.2647,0.2681,0.269,0.2711,0.2737,0.2751,0.2781,0.2793,0.2831,0.2848,0.2872,0.2887,0.2893,0.2906,0.2912,0.2903,0.2901,0.291,0.2912,0.2925,0.2925,0.2925,0.2925,0,0.2533,0.2565,0.2581,0.2622,0.2632,0.2638,0.2673,0.2682,0.2706,0.2723,0.2729,0.2767,0.2789,0.2821,0.2852,0.2868,0.2879,0.2889,0.287,0.2873,0.2869,0.2869,0.2846,0.2845,0.2881,0.288,0.288,0,0.2516,0.2523,0.2564,0.2576,0.2593,0.2611,0.2626,0.2661,0.2675,0.2709,0.2715,0.2739,0.2761,0.2794,0.2825,0.2849,0.286,0.2851,0.2864,0.2855,0.2861,0.286,0.2861,0.2847,0.2847,0.2846,0.2846,0,0.2482,0.2498,0.2518,0.2544,0.2561,0.2583,0.2606,0.2614,0.2654,0.2669,0.2692,0.2709,0.2742,0.2767,0.2796,0.2816,0.2838,0.2842,0.2842,0.2833,0.2822,0.2828,0.2861,0.2842,0.2842,0.2842,0.2843,0.2843,0.2452,0.246,0.2492,0.2514,0.2536,0.2558,0.2569,0.2596,0.2616,0.2645,0.2665,0.2688,0.2718,0.276,0.2779,0.2798,0.2807,0.2807,0.2808,0.2807,0.2805,0.2819,0.2803,0.2803,0.2804,0.2804,0.2804,0,0.242,0.2442,0.2462,0.2495,0.2513,0.2533,0.2561,0.2575,0.2595,0.2621,0.2642,0.267,0.2695,0.2728,0.2755,0.2764,0.2775,0.277,0.277,0.2774,0.2795,0.2791,0.2761,0.2761,0.2761,0.2761,0.2761,0.2761,0.2405,0.2421,0.2441,0.2469,0.2491,0.2514,0.2528,0.2549,0.2571,0.2601,0.2622,0.2644,0.2674,0.2704,0.2728,0.2737,0.2746,0.2738,0.275,0.2768,0.2772,0.2776,0.2773,0.2739,0.2739,0.2728,0.2728,0.2728]},{"header":{"parameterUnit":"m.s-1","parameterCategory":1,"la1":30.2991,"la2":30.254,"lo1":-89.0895,"lo2":-89.0444,"dy":0.0017,"dx":0.0017,"nx":28,"ny":28,"refTime":"2025-04-14T21:00:00:Z","depth":0,"parameterNumber":3,"parameterNumberName":"V-component_of_WINDS"},"data":[0,0,0,0,0,0,0,0,0,0,0,0,0,0,0,0,0,0,0,0,0,0,0,0,0,0,0,0,0,0,0,0,0,0,0,0,0,0,0,0,0,0,0,0,0,0,0,0,0,0,0,0,0,0,0,0,0,0,-4.0362,-4.0362,0,-4.0357,-4.0356,-4.0356,-4.0313,-4.0312,-4.0311,-4.031,-4.0304,-4.0305,-4.0305,0,0,0,0,0,0,0,0,0,0,0,0,0,-4.0335,-4.0335,-4.0362,-4.0362,-4.0362,-4.0357,-4.0356,-4.0356,-4.0313,-4.0312,-4.0311,-4.031,-4.0303,-4.0304,-4.0305,0,0,0,0,0,0,0,0,0,0,0,0,0,-4.034,-4.0336,-4.0362,-4.034,-4.0338,-4.0357,-4.0356,-4.0356,-4.0314,-4.0312,-4.031,-4.0309,-4.0303,-4.0304,-4.0306,-4.0345,0,0,-4.0309,-4.031,0,0,0,0,0,0,0,0,-4.0339,-4.0341,-4.0343,-4.0341,-4.0339,-4.0334,-4.0345,-4.0353,-4.0314,-4.0323,-4.031,-4.0308,-4.0315,-4.0315,-4.0318,-4.0345,-4.0344,-4.0309,-4.031,-4.0311,-4.0311,0,0,0,0,0,0,0,-4.0339,-4.0341,-4.036,-4.0343,-4.0341,-4.033,-4.0329,-4.0346,-4.0328,-4.0322,-4.0319,-4.0319,-4.0314,-4.0317,-4.0317,-4.0344,-4.0309,-4.031,-4.0311,-4.0312,-4.0404,-4.0406,0,0,0,0,0,0,-4.0342,-4.0341,-4.036,-4.0359,-4.0335,-4.0332,-4.0331,-4.0337,-4.0328,-4.0325,-4.032,-4.0317,-4.0315,-4.0316,-4.0317,-4.0362,-4.0311,-4.0312,-4.0313,-4.0403,-4.0405,-4.0407,0,0,0,0,0,0,-4.0342,-4.0344,-4.036,-4.0349,-4.0351,-4.0334,-4.0342,-4.0338,-4.0341,-4.0326,-4.0323,-4.0326,-4.0314,-4.0315,-4.0339,-4.0361,-4.0312,-4.0314,-4.0401,-4.0403,-4.0406,-4.0454,0,0,0,0,0,0,-4.0341,-4.0344,-4.0359,-4.035,-4.0351,-4.0382,-4.0343,-4.0339,-4.0343,-4.0339,-4.0331,-4.0328,-4.0313,-4.0337,-4.034,-4.0362,-4.0314,-4.0399,-4.0402,-4.0405,-4.045,-4.0458,-4.0464,0,0,0,0,0,-4.034,-4.0372,-4.036,-4.0362,-4.0369,-4.0383,-4.0384,-4.0366,-4.0345,-4.036,-4.0351,-4.0329,-4.0359,-4.034,-4.0343,-4.0366,-4.0397,-4.0401,-4.0405,-4.0447,-4.0456,-4.0464,0,0,0,0,0,0,-4.0383,-4.037,-4.0356,-4.0387,-4.0387,-4.0376,-4.0393,-4.0376,-4.0381,-4.0377,-4.0354,-4.0352,-4.0379,-4.0375,-4.0354,-4.0404,-4.0374,-4.0379,-4.0405,-4.0414,-4.0421,-4.0421,-4.0316,0,0,0,0,0,-4.0396,-4.0409,-4.0397,-4.0425,-4.0426,-4.041,-4.0415,-4.0402,-4.04,-4.04,-4.0392,-4.0392,-4.0401,-4.0408,-4.0415,-4.045,-4.0448,-4.0467,-4.0475,-4.048,-4.0484,-4.0502,-4.0511,-4.0419,-4.0419,-4.0419,0,0,-4.0423,-4.0418,-4.0427,-4.0433,-4.0431,-4.0445,-4.041,-4.0425,-4.0435,-4.0402,-4.0423,-4.0419,-4.0416,-4.0446,-4.0458,-4.0443,-4.0509,-4.0485,-4.049,-4.0491,-4.0507,-4.0516,-4.0523,-4.0422,-4.0422,-4.0421,0,0,-4.0478,-4.0476,-4.0499,-4.0498,-4.0496,-4.0486,-4.0492,-4.0485,-4.048,-4.0502,-4.0477,-4.0489,-4.0506,-4.0505,-4.0507,-4.0566,-4.0545,-4.0569,-4.0605,-4.0623,-4.063,-4.0636,-4.0656,-4.0664,-4.0573,-4.0573,-4.0573,0,-4.0511,-4.0531,-4.0512,-4.053,-4.0534,-4.0506,-4.0529,-4.0529,-4.053,-4.0533,-4.0517,-4.0538,-4.0534,-4.0563,-4.0578,-4.058,-4.0586,-4.0568,-4.0631,-4.0637,-4.0642,-4.0661,-4.0669,-4.0576,-4.0576,-4.0575,-4.0575,0,-4.0571,-4.0586,-4.0604,-4.0607,-4.0613,-4.0633,-4.0618,-4.0627,-4.0613,-4.0605,-4.0628,-4.0624,-4.063,-4.0636,-4.0623,-4.0664,-4.0654,-4.0635,-4.0604,-4.0654,-4.0671,-4.0678,-4.058,-4.0579,-4.0578,-4.0577,0,0,-4.065,-4.0644,-4.0651,-4.0653,-4.065,-4.066,-4.068,-4.0688,-4.0695,-4.0698,-4.0713,-4.0729,-4.0711,-4.0714,-4.0701,-4.0717,-4.0763,-4.0695,-4.0695,-4.0707,-4.0807,-4.082,-4.0829,-4.075,-4.0752,-4.0753,-4.0807,0,-4.0703,-4.0735,-4.0721,-4.0755,-4.0768,-4.0744,-4.0761,-4.0761,-4.0755,-4.0765,-4.0758,-4.0769,-4.0745,-4.0747,-4.0762,-4.0754,-4.0782,-4.075,-4.0764,-4.0764,-4.0763,-4.0838,-4.0852,-4.0903,-4.0813,-4.0814,-4.0815,0,-4.0767,-4.0773,-4.0809,-4.0806,-4.0811,-4.0826,-4.0832,-4.0843,-4.0843,-4.0837,-4.0842,-4.0825,-4.0844,-4.0816,-4.0842,-4.082,-4.0826,-4.0823,-4.0825,-4.0823,-4.0791,-4.0838,-4.0919,-4.0926,-4.0826,-4.0825,-4.0824,0,-4.082,-4.0837,-4.0861,-4.0863,-4.086,-4.0872,-4.0871,-4.087,-4.0875,-4.0881,-4.0885,-4.0893,-4.0896,-4.0903,-4.0889,-4.087,-4.0917,-4.0887,-4.0912,-4.0912,-4.0921,-4.092,-4.1003,-4.0928,-4.0928,-4.0927,-4.0927,0,-4.0878,-4.0901,-4.0885,-4.09,-4.0925,-4.0909,-4.0934,-4.093,-4.093,-4.0943,-4.0923,-4.0936,-4.0918,-4.0929,-4.0919,-4.0942,-4.0944,-4.094,-4.0936,-4.0941,-4.0941,-4.0942,-4.0937,-4.0929,-4.0929,-4.0929,-4.0928,0,-4.094,-4.0931,-4.0955,-4.0951,-4.095,-4.0969,-4.0965,-4.0978,-4.0972,-4.0989,-4.0992,-4.0982,-4.0994,-4.0982,-4.0993,-4.0986,-4.1017,-4.1009,-4.1017,-4.1014,-4.1039,-4.1036,-4.1123,-4.1133,-4.1053,-4.1054,-4.1055,0,-4.0977,-4.0994,-4.0993,-4.1001,-4.1001,-4.1014,-4.1021,-4.1007,-4.1014,-4.1017,-4.103,-4.1041,-4.1049,-4.107,-4.1063,-4.1072,-4.1063,-4.1094,-4.1064,-4.1068,-4.1062,-4.1061,-4.1062,-4.1099,-4.11,-4.11,-4.1101,0,-4.1044,-4.1039,-4.1049,-4.1058,-4.1067,-4.1073,-4.1077,-4.1085,-4.1071,-4.108,-4.1093,-4.11,-4.1112,-4.1123,-4.1131,-4.1129,-4.1113,-4.1111,-4.1117,-4.112,-4.1123,-4.1121,-4.1031,-4.1108,-4.1107,-4.1107,-4.1106,-4.1106,-4.1093,-4.1107,-4.1109,-4.1121,-4.1124,-4.1129,-4.1142,-4.1138,-4.1149,-4.1158,-4.115,-4.1166,-4.1167,-4.1175,-4.1176,-4.1188,-4.1175,-4.1184,-4.1186,-4.1188,-4.1191,-4.1123,-4.119,-4.119,-4.1189,-4.1189,-4.1189,0,-4.1157,-4.1158,-4.117,-4.1178,-4.1188,-4.1173,-4.1178,-4.1187,-4.1202,-4.1205,-4.1214,-4.123,-4.1241,-4.1236,-4.1246,-4.1256,-4.1249,-4.1259,-4.1257,-4.1257,-4.1203,-4.1196,-4.1265,-4.1265,-4.1265,-4.1265,-4.1265,-4.1265,-4.1191,-4.1215,-4.1211,-4.1236,-4.1236,-4.1252,-4.1256,-4.1261,-4.1264,-4.1283,-4.1292,-4.129,-4.129,-4.13,-4.1309,-4.1308,-4.1312,-4.1324,-4.132,-4.1269,-4.1261,-4.1254,-4.1247,-4.1326,-4.1326,-4.1373,-4.1373,-4.1374]}]]